Location: Gunung Kajang
(2.4167°N, 113.7167°E)
Time: 22:26:17
(UTC+00:00)

Ariane H10 - Pass Details

Date: 29 May 2022
Orbit: 373 x 34720 km, 4.4° (Epoch: 24 June)

Event Time Altitude Azimuth Distance (km) Brightness Sun altitude
Exits shadow 20:00:31 46° 153° (SSE) 1,416 4.2 -31.6°
Drops below altitude 10° 20:15:21 10° 96° (E) 7,631 8.8 -28.3°
Sets 20:33:51 0° 92° (E) 13,960 10.4 -24.1°
